Regional Weather Roundup
Issued by NWS

Home | Current Version | Previous Version | Text Only | Print | Product List | Glossary Off
Versions: 1 2 3 4 5 6 7 8 9 10 11 12 13 14 15 16 17 18 19 20 21 22 23 24 25 26 27 28 29 30 31 32 33 34 35 36 37 38 39 40 41 42 43 44 45 46 47 48 49 50

000
ASUS45 KPSR 020400
RWRAZ

PRELIMINARY ARIZONA REGIONAL HOURLY WEATHER ROUNDUP
NATIONAL WEATHER SERVICE PHOENIX AZ
900 PM MST SUN MAR 01 2015

NOTE: FAIR INDICATES FEW OR NO CLOUDS BELOW 12,000 FEET WITH NO
SIGNIFICANT WEATHER AND/OR OBSTRUCTIONS TO VISIBILITY.

AZZ001>003-036-020500-
NORTHWEST ARIZONA

CITY           SKY/WX    TMP DP  RH WIND       PRES   REMARKS
BULLHEAD CITY  LGT RAIN  52  46  82 N15       29.96F
KINGMAN        LGT RAIN  41  38  89 N3        29.95R
$$

AZZ004>008-015-016-018-020500-
NORTH CENTRAL ARIZONA

CITY           SKY/WX    TMP DP  RH WIND       PRES   REMARKS
GRAND CANYON   FLURRIES  35  34  96 S6        29.98S WCI  30
PRESCOTT       CLOUDY    47  41  80 SE6       29.98R
FLAGSTAFF      LGT RAIN  39  36  87 SW14G26   30.02R WCI  31
PAYSON         CLOUDY    48  45  87 VRB5      30.05R
PAGE           LGT RAIN  36  33  89 CALM      30.02S FOG
$$

AZZ009>014-017-020500-
NORTHEAST ARIZONA

CITY           SKY/WX    TMP DP  RH WIND       PRES   REMARKS
WINSLOW        NOT AVBL
SAINT JOHNS    CLEAR     44  29  55 SE3       30.05R
WINDOW ROCK    CLOUDY    44  36  73 CALM      30.08R
$$

AZZ023-020500-
GREATER PHOENIX AREA

CITY           SKY/WX    TMP DP  RH WIND       PRES   REMARKS
PHOENIX        PTCLDY    70  47  43 W8        29.90R
DEER VALLEY    MOCLDY    65  48  54 SW5       29.91R
SCOTTSDALE     MOCLDY    67  45  45 W3        29.93R
CHANDLER       PTCLDY    66  46  48 SW9       29.91S
$$

AZZ027-028-020500-
SOUTHWEST MARICOPA COUNTY AND PINAL COUNTY

CITY           SKY/WX    TMP DP  RH WIND       PRES   REMARKS
CASA GRANDE    CLEAR     63  45  51 SW8       29.93R
$$

AZZ503-504-507>509-020500-
SOUTHEAST ARIZONA

CITY           SKY/WX    TMP DP  RH WIND       PRES   REMARKS
TUCSON         MOCLDY    66  42  41 SE5       30.02R
DAVIS-MONTHAN  PTCLDY    65  43  45 SW10      29.99R
NOGALES        PTCLDY    58  39  49 S10       30.04S
SIERRA VISTA   PTCLDY    56  34  43 SW8       30.07R
SAFFORD        MOCLDY    63  36  36 W3        29.98R
$$

AZZ020-021-025-026-031-020500-
SOUTHWEST ARIZONA

CITY           SKY/WX    TMP DP  RH WIND       PRES   REMARKS
YUMA           LGT RAIN  54  51  90 N8        29.94R
$$

CAZ031-033-041-043-047-048-061-020500-
SOUTHERN CALIFORNIA

CITY           SKY/WX    TMP DP  RH WIND       PRES   REMARKS
DOWNTOWN L.A.  CLOUDY    55  48  77 CALM      29.93R
L.A. AIRPORT   CLOUDY    55  46  71 N6        29.94R
SAN DIEGO      MOCLDY    55  47  74 SE3       29.96R
BURBANK        RAIN      50  46  86 N6        29.93S FOG
ONTARIO        MOCLDY    52  42  69 SE5       29.92R
RIVERSIDE      MOCLDY    53  43  68 CALM      29.93R
PALM SPRINGS   LGT RAIN  51  51 100 W3        29.97F
EL CENTRO NAS  LGT RAIN  54  49  83 NW6       29.96S
IMPERIAL       LGT RAIN  53  51  93 W6        29.96R
BLYTHE         RAIN      52  51  97 N7        29.95S FOG
$$

NVZ020-UTZ003-020500-
SOUTHERN NEVADA-UTAH

CITY           SKY/WX    TMP DP  RH WIND       PRES   REMARKS
LAS VEGAS      RAIN      47  42  83 S6        29.95R
SALT LAKE CITY MOCLDY    40  30  67 CALM      30.00S
$$

NMZ009-TXZ055-020500-
NEW MEXICO-WEST TEXAS

CITY           SKY/WX    TMP DP  RH WIND       PRES   REMARKS
ALBUQUERQUE    MOCLDY    53  30  41 S13       30.08R
EL PASO        CLOUDY    61  28  28 E9        30.07R
$$


........................KEY........................
SKY/WX - SKY CONDITION/WEATHER
TMP    - TEMPERATURE IN FAHRENHEIT
DP     - DEW POINT IN FAHRENHEIT
RH     - RELATIVE HUMIDITY IN PERCENT
WIND   - DIRECTION AND SPEED IN MILES PER HOUR (MPH)
VRB    - VARIABLE WIND DIRECTION
PRES   - MEAN SEA LEVEL PRESSURE IN INCHES OF MERCURY
         F - FALLING PRESSURE   R - RISING PRESSURE
         S - STEADY PRESSURE
VSB    - VISIBILITY IN MILES
HX     - HEAT INDEX IN FAHRENHEIT
WCI    - WIND CHILL INDEX IN FAHRENHEIT
TC     - TEMPERATURE IN CELSIUS WHICH IS ALSO KNOWN AS
         TEMPERATURE IN CENTIGRADE
AFB    - AIR FORCE BASE
         LUKE AFB IS LUKE AIR FORCE BASE
         DAVIS-MONTHAN IS DAVIS-MONTHAN AIR FORCE BASE
NAS    - NAVAL AIR STATION
         EL CENTRO NAS IS EL CENTRO NAVAL AIR STATION
N/A    - NOT AVAILABLE


USA.gov is the U.S. government's official web portal to all federal, state and local government web resources and services.